Location: Alexandria
(38.8050°N, 77.0470°W)
Time: 22:55:44
(UTC-05:00)

Envisat - Pass Details

Date: 15 February 2018
Orbit: 764 x 766 km, 98.2° (Epoch: 24 February)

Event Time Altitude Azimuth Distance (km) Brightness Sun altitude
Exits shadow 20:55:34 - 216° (SW) 2,777 6.1 -37.3°
Reaches altitude 10° 20:57:20 10° 230° (SW) 2,297 5.8 -37.7°
Maximum altitude 21:00:27 16° 268° (W) 1,895 5.6 -38.2°
Drops below altitude 10° 21:03:36 10° 307° (NW) 2,306 6.1 -38.8°
Sets 21:06:48 0° 328° (NNW) 3,238 6.8 -39.4°
